Location: Newark
(33.6333°S, 78.8500°W)
Time: 00:10:00
(UTC+00:00)

Hubble Space Telescope - Visible Passes

Search period start: 24 September 2020 00:00
Search period end: 04 October 2020 00:00
Orbit: 536 x 540 km, 28.5° (Epoch: 23 September)

Date Brightness Start Highest point End Pass type
(mag) Time Alt. Az. Time Alt. Az. Time Alt. Az.
24 Sep 1.7 01:00:20 10° WNW 01:03:40 38° NNW 01:03:40 38° NNW visible
25 Sep 1.5 00:49:35 10° WNW 00:53:30 39° N 00:53:37 39° N visible
26 Sep 1.6 00:38:52 10° WNW 00:42:44 37° N 00:43:33 34° NNE visible
27 Sep 1.8 00:28:09 10° WNW 00:31:58 35° N 00:33:29 26° NNE visible
28 Sep 2.0 00:17:28 10° WNW 00:21:12 31° N 00:23:25 19° NE visible
29 Sep 2.2 00:06:49 10° WNW 00:10:24 28° NNW 00:13:23 13° NE visible
29 Sep 2.5 23:56:12 10° WNW 23:59:37 24° NNW 00:03:02 10° NE visible
30 Sep 2.7 23:45:38 10° WNW 23:48:48 21° NNW 23:51:59 10° NNE visible
